Time,TemperatureF,DewpointF,PressureIn,WindDirection,WindDirectionDegrees,WindSpeedMPH,WindSpeedGustMPH,Humidity,HourlyPrecipIn,Conditions,Clouds,dailyrainin,SoftwareType,DateUTC
2013-02-27 00:00:00,35.0,31.0,29.69,ESE,112,3.0,6.0,83,0.00,,,0.00,Rainwise IP-100,2013-02-27 05:00:00,
2013-02-27 00:05:00,35.0,31.0,29.69,East,90,5.0,7.0,83,0.00,,,0.00,Rainwise IP-100,2013-02-27 05:05:00,
2013-02-27 00:10:00,35.0,31.0,29.67,SE,135,6.0,9.0,83,0.00,,,0.00,Rainwise IP-100,2013-02-27 05:10:00,
2013-02-27 00:15:00,35.0,29.0,29.67,ENE,67,5.0,7.0,82,0.00,,,0.00,Rainwise IP-100,2013-02-27 05:15:00,
2013-02-27 00:20:00,35.0,29.0,29.68,ENE,67,6.0,9.0,82,0.00,,,0.00,Rainwise IP-100,2013-02-27 05:20:00,
2013-02-27 00:25:00,35.0,29.0,29.68,East,90,5.0,8.0,82,0.00,,,0.00,Rainwise IP-100,2013-02-27 05:25:00,
2013-02-27 00:30:00,36.0,31.0,29.67,NNE,22,1.0,8.0,82,0.00,,,0.00,Rainwise IP-100,2013-02-27 05:30:00,
2013-02-27 00:35:00,35.0,31.0,29.67,East,90,0.0,9.0,83,0.00,,,0.00,Rainwise IP-100,2013-02-27 05:35:00,
2013-02-27 00:40:00,36.0,31.0,29.66,ENE,67,2.0,9.0,83,0.00,,,0.00,Rainwise IP-100,2013-02-27 05:40:00,
2013-02-27 00:45:00,35.0,31.0,29.66,ENE,67,3.0,7.0,83,0.00,,,0.00,Rainwise IP-100,2013-02-27 05:45:00,
2013-02-27 00:50:00,36.0,31.0,29.66,East,90,2.0,8.0,83,0.00,,,0.00,Rainwise IP-100,2013-02-27 05:50:00,
2013-02-27 00:55:00,36.0,31.0,29.66,NE,45,6.0,9.0,83,0.00,,,0.00,Rainwise IP-100,2013-02-27 05:55:00,
2013-02-27 01:00:00,36.0,31.0,29.65,NE,45,4.0,9.0,83,0.00,,,0.00,Rainwise IP-100,2013-02-27 06:00:00,
2013-02-27 01:05:00,36.0,31.0,29.65,ENE,67,3.0,9.0,83,0.00,,,0.00,Rainwise IP-100,2013-02-27 06:05:00,
2013-02-27 01:10:00,36.0,31.0,29.66,NE,45,7.0,9.0,83,0.00,,,0.00,Rainwise IP-100,2013-02-27 06:10:00,
2013-02-27 01:15:00,36.0,31.0,29.66,ENE,67,6.0,12.0,83,0.00,,,0.00,Rainwise IP-100,2013-02-27 06:15:00,
2013-02-27 01:20:00,36.0,31.0,29.65,East,90,6.0,10.0,82,0.00,,,0.00,Rainwise IP-100,2013-02-27 06:20:00,
2013-02-27 01:25:00,36.0,31.0,29.65,ESE,112,2.0,12.0,82,0.00,,,0.00,Rainwise IP-100,2013-02-27 06:25:00,
2013-02-27 01:30:00,36.0,31.0,29.64,ESE,112,7.0,9.0,83,0.00,,,0.00,Rainwise IP-100,2013-02-27 06:30:00,
2013-02-27 01:35:00,36.0,31.0,29.64,East,90,6.0,10.0,83,0.00,,,0.00,Rainwise IP-100,2013-02-27 06:35:00,
2013-02-27 01:40:00,36.0,31.0,29.63,ENE,67,10.0,12.0,83,0.00,,,0.00,Rainwise IP-100,2013-02-27 06:40:00,
2013-02-27 01:45:00,36.0,31.0,29.63,SE,135,0.0,11.0,83,0.00,,,0.00,Rainwise IP-100,2013-02-27 06:45:00,
2013-02-27 01:50:00,37.0,32.0,29.62,SSE,157,2.0,9.0,84,0.00,,,0.00,Rainwise IP-100,2013-02-27 06:50:00,
2013-02-27 01:55:00,37.0,32.0,29.62,ESE,112,5.0,10.0,84,0.00,,,0.00,Rainwise IP-100,2013-02-27 06:55:00,
2013-02-27 02:00:00,37.0,32.0,29.61,SW,225,2.0,14.0,84,0.00,,,0.00,Rainwise IP-100,2013-02-27 07:00:00,
2013-02-27 02:05:00,37.0,33.0,29.61,NE,45,7.0,12.0,85,0.00,,,0.00,Rainwise IP-100,2013-02-27 07:05:00,
2013-02-27 02:10:00,37.0,33.0,29.61,NE,45,2.0,15.0,85,0.00,,,0.00,Rainwise IP-100,2013-02-27 07:10:00,
2013-02-27 02:15:00,37.0,33.0,29.61,East,90,6.0,9.0,86,0.00,,,0.00,Rainwise IP-100,2013-02-27 07:15:00,
2013-02-27 02:20:00,37.0,33.0,29.61,East,90,6.0,10.0,86,0.00,,,0.00,Rainwise IP-100,2013-02-27 07:20:00,
2013-02-27 02:25:00,37.0,33.0,29.61,ESE,112,4.0,10.0,87,0.00,,,0.00,Rainwise IP-100,2013-02-27 07:25:00,
2013-02-27 02:30:00,37.0,33.0,29.61,NE,45,7.0,13.0,87,0.00,,,0.00,Rainwise IP-100,2013-02-27 07:30:00,
2013-02-27 02:35:00,37.0,33.0,29.61,East,90,5.0,9.0,87,0.00,,,0.00,Rainwise IP-100,2013-02-27 07:35:00,
2013-02-27 02:40:00,37.0,33.0,29.61,NNE,22,7.0,10.0,88,0.00,,,0.00,Rainwise IP-100,2013-02-27 07:40:00,
2013-02-27 02:45:00,37.0,33.0,29.61,East,90,6.0,11.0,88,0.00,,,0.00,Rainwise IP-100,2013-02-27 07:45:00,
2013-02-27 02:50:00,37.0,35.0,29.61,NNE,22,6.0,9.0,89,0.00,,,0.00,Rainwise IP-100,2013-02-27 07:50:00,
2013-02-27 02:55:00,37.0,35.0,29.61,NE,45,5.0,15.0,90,0.00,,,0.00,Rainwise IP-100,2013-02-27 07:55:00,
2013-02-27 03:00:00,37.0,35.0,29.60,ENE,67,5.0,11.0,90,0.00,,,0.00,Rainwise IP-100,2013-02-27 08:00:00,
2013-02-27 03:05:00,37.0,35.0,29.60,North,360,5.0,9.0,91,0.00,,,0.00,Rainwise IP-100,2013-02-27 08:05:00,
2013-02-27 03:10:00,37.0,35.0,29.60,East,90,6.0,15.0,92,0.00,,,0.00,Rainwise IP-100,2013-02-27 08:10:00,
2013-02-27 03:15:00,37.0,35.0,29.60,NNE,22,6.0,10.0,92,0.00,,,0.00,Rainwise IP-100,2013-02-27 08:15:00,
2013-02-27 03:20:00,37.0,35.0,29.60,East,90,6.0,10.0,93,0.06,,,0.01,Rainwise IP-100,2013-02-27 08:20:00,
2013-02-27 03:25:00,37.0,36.0,29.60,East,90,12.0,12.0,94,0.06,,,0.01,Rainwise IP-100,2013-02-27 08:25:00,
2013-02-27 03:30:00,37.0,36.0,29.60,ENE,67,6.0,13.0,95,0.00,,,0.01,Rainwise IP-100,2013-02-27 08:30:00,
2013-02-27 03:35:00,37.0,36.0,29.60,SE,135,1.0,11.0,96,0.00,,,0.01,Rainwise IP-100,2013-02-27 08:35:00,
2013-02-27 03:40:00,37.0,36.0,29.60,East,90,5.0,11.0,96,0.06,,,0.02,Rainwise IP-100,2013-02-27 08:40:00,
2013-02-27 03:45:00,37.0,36.0,29.60,NE,45,9.0,14.0,96,0.06,,,0.02,Rainwise IP-100,2013-02-27 08:45:00,
2013-02-27 03:50:00,37.0,36.0,29.60,ESE,112,5.0,11.0,96,0.06,,,0.03,Rainwise IP-100,2013-02-27 08:50:00,
2013-02-27 03:55:00,36.0,35.0,29.60,NE,45,2.0,13.0,95,0.06,,,0.03,Rainwise IP-100,2013-02-27 08:55:00,
2013-02-27 04:00:00,36.0,35.0,29.60,ENE,67,9.0,13.0,95,0.00,,,0.03,Rainwise IP-100,2013-02-27 09:00:00,
2013-02-27 04:05:00,36.0,35.0,29.60,NE,45,9.0,11.0,95,0.06,,,0.04,Rainwise IP-100,2013-02-27 09:05:00,
2013-02-27 04:10:00,36.0,35.0,29.57,ESE,112,5.0,11.0,95,0.06,,,0.04,Rainwise IP-100,2013-02-27 09:10:00,
2013-02-27 04:15:00,36.0,35.0,29.57,East,90,8.0,13.0,95,0.06,,,0.05,Rainwise IP-100,2013-02-27 09:15:00,
2013-02-27 04:20:00,36.0,35.0,29.58,East,90,6.0,15.0,95,0.06,,,0.05,Rainwise IP-100,2013-02-27 09:20:00,
2013-02-27 04:25:00,36.0,35.0,29.58,ESE,112,1.0,12.0,95,0.06,,,0.06,Rainwise IP-100,2013-02-27 09:25:00,
2013-02-27 04:30:00,36.0,35.0,29.59,ENE,67,11.0,11.0,95,0.06,,,0.06,Rainwise IP-100,2013-02-27 09:30:00,
2013-02-27 04:35:00,36.0,35.0,29.59,ENE,67,8.0,13.0,95,0.00,,,0.06,Rainwise IP-100,2013-02-27 09:35:00,
2013-02-27 04:40:00,36.0,35.0,29.58,NE,45,9.0,16.0,95,0.06,,,0.07,Rainwise IP-100,2013-02-27 09:40:00,
2013-02-27 04:45:00,36.0,35.0,29.58,ENE,67,13.0,16.0,95,0.12,,,0.08,Rainwise IP-100,2013-02-27 09:45:00,
2013-02-27 04:50:00,36.0,35.0,29.58,NE,45,7.0,14.0,95,0.18,,,0.10,Rainwise IP-100,2013-02-27 09:50:00,
2013-02-27 04:55:00,36.0,35.0,29.58,NE,45,10.0,14.0,95,0.24,,,0.12,Rainwise IP-100,2013-02-27 09:55:00,
2013-02-27 05:00:00,36.0,35.0,29.56,East,90,7.0,23.0,95,0.18,,,0.13,Rainwise IP-100,2013-02-27 10:00:00,
2013-02-27 05:05:00,36.0,35.0,29.56,ENE,67,7.0,13.0,95,0.12,,,0.14,Rainwise IP-100,2013-02-27 10:05:00,
2013-02-27 05:10:00,36.0,35.0,29.57,East,90,6.0,13.0,95,0.06,,,0.14,Rainwise IP-100,2013-02-27 10:10:00,
2013-02-27 05:15:00,36.0,35.0,29.57,ENE,67,2.0,13.0,95,0.06,,,0.15,Rainwise IP-100,2013-02-27 10:15:00,
2013-02-27 05:20:00,36.0,35.0,29.56,North,360,1.0,13.0,95,0.12,,,0.16,Rainwise IP-100,2013-02-27 10:20:00,
2013-02-27 05:25:00,36.0,35.0,29.56,ENE,67,6.0,10.0,95,0.06,,,0.16,Rainwise IP-100,2013-02-27 10:25:00,
2013-02-27 05:30:00,36.0,35.0,29.55,East,90,9.0,19.0,95,0.06,,,0.17,Rainwise IP-100,2013-02-27 10:30:00,
2013-02-27 05:35:00,36.0,35.0,29.55,East,90,2.0,19.0,95,0.06,,,0.17,Rainwise IP-100,2013-02-27 10:35:00,
2013-02-27 05:40:00,36.0,35.0,29.55,East,90,6.0,15.0,95,0.06,,,0.18,Rainwise IP-100,2013-02-27 10:40:00,
2013-02-27 05:45:00,36.0,35.0,29.55,East,90,6.0,16.0,95,0.12,,,0.19,Rainwise IP-100,2013-02-27 10:45:00,
2013-02-27 05:50:00,36.0,35.0,29.54,North,360,10.0,16.0,95,0.06,,,0.19,Rainwise IP-100,2013-02-27 10:50:00,
2013-02-27 05:55:00,37.0,36.0,29.54,NE,45,13.0,15.0,96,0.00,,,0.19,Rainwise IP-100,2013-02-27 10:55:00,
2013-02-27 06:00:00,37.0,36.0,29.53,ENE,67,9.0,15.0,96,0.06,,,0.20,Rainwise IP-100,2013-02-27 11:00:00,
2013-02-27 06:05:00,37.0,36.0,29.53,ENE,67,7.0,17.0,96,0.06,,,0.20,Rainwise IP-100,2013-02-27 11:05:00,
2013-02-27 06:06:00,37.0,36.0,29.53,SE,135,6.0,15.0,96,0.06,,,0.20,Rainwise IP-100,2013-02-27 11:06:00,
2013-02-27 06:11:00,37.0,36.0,29.53,East,90,4.0,19.0,96,0.00,,,0.20,Rainwise IP-100,2013-02-27 11:11:00,
2013-02-27 06:16:00,37.0,36.0,29.53,East,90,6.0,19.0,96,0.00,,,0.21,Rainwise IP-100,2013-02-27 11:16:00,
2013-02-27 06:21:00,37.0,36.0,29.51,ENE,67,13.0,16.0,96,0.06,,,0.21,Rainwise IP-100,2013-02-27 11:21:00,
2013-02-27 06:26:00,38.0,37.0,29.51,East,90,3.0,16.0,96,0.06,,,0.21,Rainwise IP-100,2013-02-27 11:26:00,
2013-02-27 06:31:00,38.0,37.0,29.50,ENE,67,13.0,13.0,96,0.00,,,0.21,Rainwise IP-100,2013-02-27 11:31:00,
2013-02-27 06:36:00,38.0,37.0,29.50,East,90,12.0,19.0,96,0.00,,,0.21,Rainwise IP-100,2013-02-27 11:36:00,
2013-02-27 06:41:00,38.0,37.0,29.51,East,90,9.0,16.0,96,0.00,,,0.21,Rainwise IP-100,2013-02-27 11:41:00,
2013-02-27 06:46:00,38.0,37.0,29.51,ENE,67,9.0,13.0,96,0.06,,,0.22,Rainwise IP-100,2013-02-27 11:46:00,
2013-02-27 06:51:00,38.0,37.0,29.50,NNE,22,11.0,13.0,96,0.06,,,0.22,Rainwise IP-100,2013-02-27 11:51:00,
2013-02-27 06:56:00,38.0,37.0,29.50,ESE,112,1.0,16.0,96,0.00,,,0.22,Rainwise IP-100,2013-02-27 11:56:00,
2013-02-27 07:01:00,39.0,38.0,29.49,East,90,7.0,18.0,96,0.00,,,0.22,Rainwise IP-100,2013-02-27 12:01:00,
2013-02-27 07:06:00,39.0,38.0,29.49,East,90,12.0,17.0,96,0.06,,,0.23,Rainwise IP-100,2013-02-27 12:06:00,
2013-02-27 07:11:00,39.0,38.0,29.49,ENE,67,9.0,17.0,96,0.06,,,0.23,Rainwise IP-100,2013-02-27 12:11:00,
2013-02-27 07:16:00,39.0,38.0,29.49,East,90,9.0,15.0,96,0.06,,,0.24,Rainwise IP-100,2013-02-27 12:16:00,
2013-02-27 07:21:00,39.0,38.0,29.49,ESE,112,3.0,10.0,96,0.06,,,0.24,Rainwise IP-100,2013-02-27 12:21:00,
2013-02-27 07:26:00,39.0,38.0,29.49,East,90,6.0,13.0,96,0.00,,,0.24,Rainwise IP-100,2013-02-27 12:26:00,
2013-02-27 07:31:00,39.0,38.0,29.48,ENE,67,10.0,19.0,96,0.00,,,0.24,Rainwise IP-100,2013-02-27 12:31:00,
2013-02-27 07:36:00,39.0,38.0,29.48,ESE,112,6.0,19.0,96,0.00,,,0.24,Rainwise IP-100,2013-02-27 12:36:00,
2013-02-27 07:41:00,39.0,38.0,29.48,East,90,8.0,15.0,96,0.00,,,0.24,Rainwise IP-100,2013-02-27 12:41:00,
2013-02-27 07:46:00,39.0,38.0,29.48,East,90,15.0,17.0,96,0.06,,,0.25,Rainwise IP-100,2013-02-27 12:46:00,
2013-02-27 07:50:00,39.0,38.0,29.47,ESE,112,5.0,20.0,96,0.06,,,0.25,Rainwise IP-100,2013-02-27 12:50:00,
2013-02-27 07:55:00,39.0,38.0,29.47,East,90,11.0,19.0,96,0.06,,,0.25,Rainwise IP-100,2013-02-27 12:55:00,
2013-02-27 08:00:00,39.0,38.0,29.46,ESE,112,11.0,18.0,96,0.06,,,0.26,Rainwise IP-100,2013-02-27 13:00:00,
2013-02-27 08:05:00,39.0,38.0,29.46,ESE,112,10.0,16.0,96,0.06,,,0.26,Rainwise IP-100,2013-02-27 13:05:00,
2013-02-27 08:10:00,39.0,38.0,29.46,ENE,67,9.0,15.0,96,0.00,,,0.26,Rainwise IP-100,2013-02-27 13:10:00,
2013-02-27 08:15:00,39.0,38.0,29.46,ESE,112,8.0,15.0,96,0.06,,,0.27,Rainwise IP-100,2013-02-27 13:15:00,
2013-02-27 08:20:00,39.0,38.0,29.46,ENE,67,9.0,15.0,96,0.06,,,0.27,Rainwise IP-100,2013-02-27 13:20:00,
2013-02-27 08:25:00,39.0,38.0,29.46,ESE,112,12.0,21.0,96,0.06,,,0.28,Rainwise IP-100,2013-02-27 13:25:00,
2013-02-27 08:30:00,39.0,38.0,29.45,ENE,67,8.0,19.0,96,0.06,,,0.29,Rainwise IP-100,2013-02-27 13:30:00,
2013-02-27 08:35:00,39.0,38.0,29.45,SE,135,3.0,17.0,96,0.06,,,0.29,Rainwise IP-100,2013-02-27 13:35:00,
2013-02-27 08:40:00,39.0,38.0,29.45,East,90,8.0,13.0,96,0.06,,,0.29,Rainwise IP-100,2013-02-27 13:40:00,
2013-02-27 08:45:00,39.0,38.0,29.45,North,360,10.0,13.0,96,0.00,,,0.30,Rainwise IP-100,2013-02-27 13:45:00,
2013-02-27 08:50:00,39.0,38.0,29.44,ENE,67,9.0,16.0,96,0.06,,,0.30,Rainwise IP-100,2013-02-27 13:50:00,
2013-02-27 08:55:00,39.0,38.0,29.44,ENE,67,8.0,15.0,96,0.06,,,0.30,Rainwise IP-100,2013-02-27 13:55:00,
2013-02-27 09:00:00,39.0,38.0,29.45,ENE,67,4.0,12.0,96,0.00,,,0.30,Rainwise IP-100,2013-02-27 14:00:00,
2013-02-27 09:05:00,39.0,38.0,29.45,ESE,112,6.0,14.0,96,0.06,,,0.31,Rainwise IP-100,2013-02-27 14:05:00,
2013-02-27 09:10:00,39.0,38.0,29.44,ESE,112,9.0,13.0,96,0.12,,,0.32,Rainwise IP-100,2013-02-27 14:10:00,
2013-02-27 09:15:00,39.0,38.0,29.44,East,90,8.0,15.0,96,0.12,,,0.33,Rainwise IP-100,2013-02-27 14:15:00,
2013-02-27 09:20:00,39.0,38.0,29.42,ESE,112,6.0,14.0,96,0.12,,,0.34,Rainwise IP-100,2013-02-27 14:20:00,
2013-02-27 09:25:00,39.0,38.0,29.42,NNE,22,4.0,16.0,96,0.06,,,0.35,Rainwise IP-100,2013-02-27 14:25:00,
2013-02-27 09:30:00,39.0,38.0,29.41,East,90,10.0,20.0,96,0.06,,,0.35,Rainwise IP-100,2013-02-27 14:30:00,
2013-02-27 09:35:00,40.0,39.0,29.41,East,90,8.0,20.0,96,0.12,,,0.36,Rainwise IP-100,2013-02-27 14:35:00,
2013-02-27 09:40:00,40.0,39.0,29.41,East,90,5.0,15.0,96,0.12,,,0.37,Rainwise IP-100,2013-02-27 14:40:00,
2013-02-27 09:45:00,40.0,39.0,29.41,East,90,8.0,16.0,96,0.12,,,0.38,Rainwise IP-100,2013-02-27 14:45:00,
2013-02-27 09:50:00,40.0,39.0,29.41,ESE,112,13.0,17.0,96,0.06,,,0.39,Rainwise IP-100,2013-02-27 14:50:00,
2013-02-27 09:55:00,40.0,39.0,29.41,East,90,7.0,20.0,96,0.06,,,0.39,Rainwise IP-100,2013-02-27 14:55:00,
2013-02-27 10:00:00,40.0,39.0,29.41,East,90,11.0,18.0,96,0.06,,,0.39,Rainwise IP-100,2013-02-27 15:00:00,
2013-02-27 10:05:00,40.0,39.0,29.41,ESE,112,7.0,22.0,96,0.00,,,0.39,Rainwise IP-100,2013-02-27 15:05:00,
2013-02-27 10:10:00,40.0,39.0,29.41,East,90,9.0,19.0,96,0.06,,,0.40,Rainwise IP-100,2013-02-27 15:10:00,
2013-02-27 10:15:00,40.0,39.0,29.41,ENE,67,13.0,19.0,96,0.12,,,0.41,Rainwise IP-100,2013-02-27 15:15:00,
2013-02-27 10:20:00,40.0,39.0,29.40,ESE,112,9.0,16.0,96,0.12,,,0.42,Rainwise IP-100,2013-02-27 15:20:00,
2013-02-27 10:25:00,40.0,39.0,29.40,East,90,7.0,18.0,96,0.06,,,0.42,Rainwise IP-100,2013-02-27 15:25:00,
2013-02-27 10:30:00,40.0,39.0,29.39,East,90,11.0,17.0,96,0.06,,,0.43,Rainwise IP-100,2013-02-27 15:30:00,
2013-02-27 10:35:00,40.0,39.0,29.39,SE,135,8.0,18.0,96,0.12,,,0.44,Rainwise IP-100,2013-02-27 15:35:00,
2013-02-27 10:40:00,40.0,39.0,29.38,SE,135,7.0,15.0,96,0.06,,,0.44,Rainwise IP-100,2013-02-27 15:40:00,
2013-02-27 10:45:00,40.0,39.0,29.38,East,90,13.0,21.0,96,0.06,,,0.45,Rainwise IP-100,2013-02-27 15:45:00,
2013-02-27 10:50:00,40.0,39.0,29.38,ESE,112,12.0,17.0,96,0.06,,,0.46,Rainwise IP-100,2013-02-27 15:50:00,
2013-02-27 10:55:00,40.0,39.0,29.38,ESE,112,6.0,17.0,96,0.06,,,0.46,Rainwise IP-100,2013-02-27 15:55:00,
2013-02-27 11:00:00,40.0,39.0,29.37,ESE,112,10.0,16.0,96,0.06,,,0.47,Rainwise IP-100,2013-02-27 16:00:00,
2013-02-27 11:05:00,40.0,39.0,29.37,NNW,337,7.0,17.0,96,0.06,,,0.47,Rainwise IP-100,2013-02-27 16:05:00,
2013-02-27 11:10:00,40.0,39.0,29.37,ENE,67,16.0,16.0,96,0.06,,,0.48,Rainwise IP-100,2013-02-27 16:10:00,
2013-02-27 11:16:00,40.0,39.0,29.37,ESE,112,10.0,26.0,96,0.06,,,0.48,Rainwise IP-100,2013-02-27 16:16:00,
2013-02-27 11:21:00,40.0,39.0,29.37,ENE,67,6.0,18.0,96,0.06,,,0.48,Rainwise IP-100,2013-02-27 16:21:00,
2013-02-27 11:26:00,40.0,39.0,29.37,ESE,112,15.0,15.0,96,0.00,,,0.48,Rainwise IP-100,2013-02-27 16:26:00,
2013-02-27 11:31:00,40.0,39.0,29.37,SE,135,9.0,18.0,96,0.00,,,0.48,Rainwise IP-100,2013-02-27 16:31:00,
2013-02-27 11:36:00,40.0,39.0,29.37,ESE,112,11.0,15.0,96,0.00,,,0.48,Rainwise IP-100,2013-02-27 16:36:00,
2013-02-27 11:40:00,40.0,39.0,29.36,ENE,67,10.0,16.0,96,0.00,,,0.48,Rainwise IP-100,2013-02-27 16:40:00,
2013-02-27 11:45:00,40.0,39.0,29.36,East,90,9.0,13.0,96,0.00,,,0.48,Rainwise IP-100,2013-02-27 16:45:00,
2013-02-27 11:50:00,40.0,39.0,29.35,East,90,10.0,22.0,96,0.06,,,0.49,Rainwise IP-100,2013-02-27 16:50:00,
2013-02-27 11:55:00,40.0,39.0,29.35,ENE,67,11.0,17.0,96,0.12,,,0.50,Rainwise IP-100,2013-02-27 16:55:00,
2013-02-27 12:01:00,40.0,39.0,29.33,ESE,112,12.0,16.0,96,0.12,,,0.51,Rainwise IP-100,2013-02-27 17:01:00,
2013-02-27 12:06:00,40.0,39.0,29.33,ESE,112,9.0,21.0,96,0.12,,,0.52,Rainwise IP-100,2013-02-27 17:06:00,
2013-02-27 12:11:00,40.0,39.0,29.33,ESE,112,5.0,16.0,96,0.06,,,0.52,Rainwise IP-100,2013-02-27 17:11:00,
2013-02-27 12:16:00,40.0,39.0,29.33,ESE,112,10.0,26.0,96,0.00,,,0.53,Rainwise IP-100,2013-02-27 17:16:00,
2013-02-27 12:21:00,40.0,39.0,29.32,NE,45,10.0,24.0,96,0.06,,,0.53,Rainwise IP-100,2013-02-27 17:21:00,
2013-02-27 12:26:00,40.0,39.0,29.32,East,90,11.0,22.0,96,0.06,,,0.53,Rainwise IP-100,2013-02-27 17:26:00,
2013-02-27 12:31:00,40.0,39.0,29.32,ESE,112,17.0,21.0,96,0.00,,,0.53,Rainwise IP-100,2013-02-27 17:31:00,
2013-02-27 12:36:00,40.0,39.0,29.32,ESE,112,7.0,22.0,96,0.00,,,0.53,Rainwise IP-100,2013-02-27 17:36:00,
2013-02-27 12:41:00,40.0,39.0,29.31,ESE,112,7.0,16.0,96,0.00,,,0.53,Rainwise IP-100,2013-02-27 17:41:00,
2013-02-27 12:46:00,40.0,39.0,29.31,SE,135,2.0,17.0,96,0.00,,,0.54,Rainwise IP-100,2013-02-27 17:46:00,
2013-02-27 12:51:00,40.0,39.0,29.30,East,90,8.0,15.0,96,0.06,,,0.54,Rainwise IP-100,2013-02-27 17:51:00,
2013-02-27 12:56:00,40.0,39.0,29.30,SE,135,7.0,20.0,96,0.06,,,0.55,Rainwise IP-100,2013-02-27 17:56:00,
2013-02-27 13:01:00,40.0,39.0,29.31,ESE,112,6.0,25.0,96,0.06,,,0.55,Rainwise IP-100,2013-02-27 18:01:00,
2013-02-27 13:06:00,40.0,39.0,29.31,East,90,12.0,21.0,96,0.12,,,0.56,Rainwise IP-100,2013-02-27 18:06:00,
2013-02-27 13:11:00,39.0,38.0,29.30,ESE,112,18.0,20.0,96,0.06,,,0.56,Rainwise IP-100,2013-02-27 18:11:00,
2013-02-27 13:16:00,39.0,38.0,29.30,ESE,112,13.0,24.0,96,0.00,,,0.56,Rainwise IP-100,2013-02-27 18:16:00,
2013-02-27 13:21:00,39.0,38.0,29.30,East,90,16.0,24.0,96,0.00,,,0.56,Rainwise IP-100,2013-02-27 18:21:00,
2013-02-27 13:26:00,39.0,38.0,29.30,ESE,112,12.0,22.0,96,0.06,,,0.57,Rainwise IP-100,2013-02-27 18:26:00,
2013-02-27 13:31:00,39.0,38.0,29.29,East,90,7.0,22.0,96,0.12,,,0.58,Rainwise IP-100,2013-02-27 18:31:00,
2013-02-27 13:36:00,39.0,38.0,29.29,East,90,9.0,21.0,96,0.12,,,0.59,Rainwise IP-100,2013-02-27 18:36:00,
2013-02-27 13:41:00,39.0,38.0,29.29,ENE,67,9.0,19.0,96,0.06,,,0.59,Rainwise IP-100,2013-02-27 18:41:00,
2013-02-27 13:46:00,38.0,37.0,29.29,East,90,7.0,19.0,96,0.06,,,0.60,Rainwise IP-100,2013-02-27 18:46:00,
2013-02-27 13:51:00,38.0,37.0,29.29,East,90,18.0,18.0,96,0.06,,,0.60,Rainwise IP-100,2013-02-27 18:51:00,
2013-02-27 13:56:00,38.0,37.0,29.29,ESE,112,8.0,23.0,96,0.00,,,0.60,Rainwise IP-100,2013-02-27 18:56:00,
2013-02-27 14:01:00,38.0,37.0,29.30,East,90,12.0,16.0,96,0.06,,,0.61,Rainwise IP-100,2013-02-27 19:01:00,
2013-02-27 14:06:00,38.0,37.0,29.30,ENE,67,17.0,19.0,96,0.06,,,0.61,Rainwise IP-100,2013-02-27 19:06:00,
2013-02-27 14:11:00,38.0,37.0,29.30,East,90,4.0,23.0,96,0.06,,,0.62,Rainwise IP-100,2013-02-27 19:11:00,
2013-02-27 14:16:00,38.0,37.0,29.30,SE,135,13.0,13.0,96,0.06,,,0.62,Rainwise IP-100,2013-02-27 19:16:00,
2013-02-27 14:21:00,38.0,37.0,29.29,ESE,112,7.0,26.0,96,0.06,,,0.63,Rainwise IP-100,2013-02-27 19:21:00,
2013-02-27 14:26:00,37.0,36.0,29.29,SE,135,8.0,19.0,96,0.06,,,0.63,Rainwise IP-100,2013-02-27 19:26:00,
2013-02-27 14:31:00,37.0,36.0,29.29,ESE,112,12.0,17.0,96,0.06,,,0.64,Rainwise IP-100,2013-02-27 19:31:00,
2013-02-27 14:36:00,37.0,36.0,29.29,SE,135,2.0,17.0,96,0.06,,,0.64,Rainwise IP-100,2013-02-27 19:36:00,
2013-02-27 14:41:00,37.0,36.0,29.30,NE,45,8.0,23.0,96,0.06,,,0.65,Rainwise IP-100,2013-02-27 19:41:00,
2013-02-27 14:46:00,37.0,36.0,29.30,East,90,7.0,17.0,96,0.12,,,0.66,Rainwise IP-100,2013-02-27 19:46:00,
2013-02-27 14:51:00,37.0,36.0,29.29,ESE,112,2.0,25.0,96,0.12,,,0.67,Rainwise IP-100,2013-02-27 19:51:00,
2013-02-27 14:56:00,37.0,36.0,29.29,NE,45,6.0,17.0,96,0.12,,,0.68,Rainwise IP-100,2013-02-27 19:56:00,
2013-02-27 15:01:00,37.0,36.0,29.28,ESE,112,9.0,19.0,96,0.12,,,0.69,Rainwise IP-100,2013-02-27 20:01:00,
2013-02-27 15:06:00,37.0,36.0,29.28,NE,45,12.0,15.0,96,0.12,,,0.70,Rainwise IP-100,2013-02-27 20:06:00,
2013-02-27 15:11:00,36.0,35.0,29.28,ESE,112,9.0,17.0,95,0.06,,,0.70,Rainwise IP-100,2013-02-27 20:11:00,
2013-02-27 15:16:00,36.0,35.0,29.28,ESE,112,3.0,19.0,95,0.06,,,0.71,Rainwise IP-100,2013-02-27 20:16:00,
2013-02-27 15:21:00,36.0,35.0,29.28,East,90,6.0,18.0,95,0.12,,,0.72,Rainwise IP-100,2013-02-27 20:21:00,
2013-02-27 15:26:00,36.0,35.0,29.28,East,90,5.0,13.0,95,0.06,,,0.72,Rainwise IP-100,2013-02-27 20:26:00,
2013-02-27 15:31:00,36.0,35.0,29.29,ESE,112,8.0,17.0,95,0.00,,,0.72,Rainwise IP-100,2013-02-27 20:31:00,
2013-02-27 15:36:00,36.0,35.0,29.29,ESE,112,7.0,17.0,95,0.00,,,0.72,Rainwise IP-100,2013-02-27 20:36:00,
2013-02-27 15:41:00,36.0,35.0,29.28,East,90,12.0,16.0,95,0.06,,,0.73,Rainwise IP-100,2013-02-27 20:41:00,
2013-02-27 15:46:00,36.0,35.0,29.28,ESE,112,4.0,20.0,95,0.06,,,0.73,Rainwise IP-100,2013-02-27 20:46:00,
2013-02-27 15:51:00,36.0,35.0,29.28,ESE,112,6.0,18.0,95,0.06,,,0.74,Rainwise IP-100,2013-02-27 20:51:00,
2013-02-27 15:56:00,36.0,35.0,29.28,NE,45,7.0,20.0,95,0.18,,,0.76,Rainwise IP-100,2013-02-27 20:56:00,
2013-02-27 16:01:00,36.0,35.0,29.24,ESE,112,9.0,31.0,95,0.18,,,0.77,Rainwise IP-100,2013-02-27 21:01:00,
2013-02-27 16:06:00,36.0,35.0,29.24,ESE,112,8.0,22.0,95,0.12,,,0.78,Rainwise IP-100,2013-02-27 21:06:00,
2013-02-27 16:11:00,36.0,35.0,29.24,ESE,112,5.0,25.0,95,0.18,,,0.80,Rainwise IP-100,2013-02-27 21:11:00,
2013-02-27 16:16:00,36.0,35.0,29.24,ENE,67,14.0,23.0,95,0.18,,,0.81,Rainwise IP-100,2013-02-27 21:16:00,
2013-02-27 16:21:00,36.0,35.0,29.24,ENE,67,8.0,18.0,95,0.18,,,0.83,Rainwise IP-100,2013-02-27 21:21:00,
2013-02-27 16:26:00,35.0,33.0,29.24,NE,45,12.0,20.0,95,0.24,,,0.85,Rainwise IP-100,2013-02-27 21:26:00,
2013-02-27 16:31:00,35.0,33.0,29.25,NE,45,3.0,20.0,95,0.12,,,0.85,Rainwise IP-100,2013-02-27 21:31:00,
2013-02-27 16:36:00,35.0,33.0,29.25,NNE,22,10.0,23.0,95,0.06,,,0.86,Rainwise IP-100,2013-02-27 21:36:00,
2013-02-27 16:41:00,35.0,33.0,29.24,ESE,112,7.0,17.0,95,0.06,,,0.86,Rainwise IP-100,2013-02-27 21:41:00,
2013-02-27 16:46:00,35.0,33.0,29.24,SE,135,6.0,25.0,95,0.00,,,0.86,Rainwise IP-100,2013-02-27 21:46:00,
2013-02-27 16:51:00,35.0,33.0,29.23,SE,135,2.0,19.0,95,0.00,,,0.86,Rainwise IP-100,2013-02-27 21:51:00,
2013-02-27 16:56:00,35.0,33.0,29.23,East,90,7.0,19.0,95,0.00,,,0.86,Rainwise IP-100,2013-02-27 21:56:00,
2013-02-27 17:01:00,35.0,33.0,29.23,East,90,13.0,13.0,95,0.00,,,0.86,Rainwise IP-100,2013-02-27 22:01:00,
2013-02-27 17:06:00,35.0,33.0,29.23,NNE,22,6.0,23.0,95,0.06,,,0.87,Rainwise IP-100,2013-02-27 22:06:00,
2013-02-27 17:11:00,35.0,33.0,29.23,ENE,67,9.0,22.0,95,0.12,,,0.88,Rainwise IP-100,2013-02-27 22:11:00,
2013-02-27 17:16:00,35.0,33.0,29.23,NE,45,9.0,20.0,95,0.06,,,0.88,Rainwise IP-100,2013-02-27 22:16:00,
2013-02-27 17:21:00,35.0,33.0,29.23,ENE,67,12.0,16.0,95,0.00,,,0.88,Rainwise IP-100,2013-02-27 22:21:00,
2013-02-27 17:26:00,35.0,33.0,29.23,ENE,67,10.0,26.0,95,0.06,,,0.89,Rainwise IP-100,2013-02-27 22:26:00,
2013-02-27 17:31:00,35.0,33.0,29.22,NE,45,15.0,20.0,95,0.06,,,0.89,Rainwise IP-100,2013-02-27 22:31:00,
2013-02-27 17:36:00,35.0,33.0,29.22,NNE,22,17.0,17.0,95,0.00,,,0.89,Rainwise IP-100,2013-02-27 22:36:00,
2013-02-27 17:41:00,35.0,33.0,29.23,NNE,22,9.0,19.0,95,0.00,,,0.89,Rainwise IP-100,2013-02-27 22:41:00,
2013-02-27 17:46:00,35.0,33.0,29.23,ENE,67,12.0,15.0,95,0.06,,,0.90,Rainwise IP-100,2013-02-27 22:46:00,
2013-02-27 17:51:00,35.0,33.0,29.21,ENE,67,10.0,22.0,95,0.06,,,0.90,Rainwise IP-100,2013-02-27 22:51:00,
2013-02-27 17:56:00,35.0,33.0,29.21,ENE,67,12.0,16.0,95,0.00,,,0.90,Rainwise IP-100,2013-02-27 22:56:00,
2013-02-27 18:01:00,35.0,33.0,29.22,NE,45,13.0,20.0,95,0.00,,,0.90,Rainwise IP-100,2013-02-27 23:01:00,
2013-02-27 18:06:00,35.0,33.0,29.22,NE,45,8.0,20.0,95,0.00,,,0.90,Rainwise IP-100,2013-02-27 23:06:00,
2013-02-27 18:11:00,35.0,33.0,29.22,NE,45,12.0,16.0,95,0.06,,,0.91,Rainwise IP-100,2013-02-27 23:11:00,
2013-02-27 18:16:00,35.0,33.0,29.22,NE,45,10.0,14.0,95,0.06,,,0.91,Rainwise IP-100,2013-02-27 23:16:00,
2013-02-27 18:21:00,35.0,33.0,29.22,East,90,5.0,16.0,95,0.00,,,0.91,Rainwise IP-100,2013-02-27 23:21:00,
2013-02-27 18:26:00,35.0,33.0,29.22,NNE,22,8.0,17.0,95,0.00,,,0.91,Rainwise IP-100,2013-02-27 23:26:00,
2013-02-27 18:31:00,35.0,33.0,29.22,ENE,67,7.0,13.0,95,0.06,,,0.92,Rainwise IP-100,2013-02-27 23:31:00,
2013-02-27 18:36:00,35.0,33.0,29.22,ENE,67,10.0,13.0,95,0.06,,,0.92,Rainwise IP-100,2013-02-27 23:36:00,
2013-02-27 18:41:00,35.0,33.0,29.21,ENE,67,9.0,19.0,95,0.00,,,0.92,Rainwise IP-100,2013-02-27 23:41:00,
2013-02-27 18:46:00,35.0,33.0,29.21,NE,45,9.0,14.0,95,0.06,,,0.93,Rainwise IP-100,2013-02-27 23:46:00,
2013-02-27 18:51:00,35.0,33.0,29.21,ENE,67,10.0,18.0,95,0.12,,,0.94,Rainwise IP-100,2013-02-27 23:51:00,
2013-02-27 18:56:00,35.0,33.0,29.21,NE,45,12.0,18.0,95,0.12,,,0.95,Rainwise IP-100,2013-02-27 23:56:00,
2013-02-27 19:01:00,35.0,33.0,29.20,NE,45,4.0,15.0,95,0.06,,,0.95,Rainwise IP-100,2013-02-28 00:01:00,
2013-02-27 19:06:00,35.0,33.0,29.20,NE,45,12.0,17.0,95,0.06,,,0.96,Rainwise IP-100,2013-02-28 00:06:00,
2013-02-27 19:11:00,35.0,33.0,29.19,East,90,3.0,16.0,95,0.06,,,0.96,Rainwise IP-100,2013-02-28 00:11:00,
2013-02-27 19:16:00,35.0,33.0,29.19,North,360,12.0,13.0,95,0.00,,,0.96,Rainwise IP-100,2013-02-28 00:16:00,
2013-02-27 19:21:00,35.0,33.0,29.19,NE,45,7.0,18.0,95,0.00,,,0.96,Rainwise IP-100,2013-02-28 00:21:00,
2013-02-27 19:26:00,35.0,33.0,29.19,East,90,11.0,22.0,95,0.06,,,0.97,Rainwise IP-100,2013-02-28 00:26:00,
2013-02-27 19:31:00,35.0,33.0,29.17,NNE,22,15.0,17.0,95,0.06,,,0.97,Rainwise IP-100,2013-02-28 00:31:00,
2013-02-27 19:36:00,35.0,33.0,29.17,East,90,8.0,26.0,95,0.00,,,0.97,Rainwise IP-100,2013-02-28 00:36:00,
2013-02-27 19:41:00,35.0,33.0,29.17,ENE,67,11.0,16.0,95,0.00,,,0.97,Rainwise IP-100,2013-02-28 00:41:00,
2013-02-27 19:46:00,35.0,33.0,29.17,NNE,22,15.0,19.0,95,0.00,,,0.97,Rainwise IP-100,2013-02-28 00:46:00,
2013-02-27 19:51:00,35.0,33.0,29.16,ENE,67,6.0,20.0,95,0.06,,,0.98,Rainwise IP-100,2013-02-28 00:51:00,
2013-02-27 19:56:00,35.0,33.0,29.16,North,360,7.0,20.0,95,0.06,,,0.98,Rainwise IP-100,2013-02-28 00:56:00,
2013-02-27 20:01:00,35.0,33.0,29.15,NE,45,9.0,16.0,95,0.00,,,0.98,Rainwise IP-100,2013-02-28 01:01:00,
2013-02-27 20:06:00,35.0,33.0,29.15,NE,45,11.0,19.0,95,0.00,,,0.98,Rainwise IP-100,2013-02-28 01:06:00,
2013-02-27 20:11:00,36.0,35.0,29.15,NE,45,9.0,16.0,95,0.00,,,0.98,Rainwise IP-100,2013-02-28 01:11:00,
2013-02-27 20:16:00,36.0,35.0,29.15,North,360,7.0,17.0,95,0.00,,,0.98,Rainwise IP-100,2013-02-28 01:16:00,
2013-02-27 20:21:00,36.0,35.0,29.14,ENE,67,7.0,17.0,95,0.00,,,0.98,Rainwise IP-100,2013-02-28 01:21:00,
2013-02-27 20:26:00,36.0,35.0,29.14,NE,45,16.0,17.0,95,0.00,,,0.99,Rainwise IP-100,2013-02-28 01:26:00,
2013-02-27 20:31:00,36.0,35.0,29.14,NE,45,11.0,20.0,95,0.06,,,0.99,Rainwise IP-100,2013-02-28 01:31:00,
2013-02-27 20:36:00,36.0,35.0,29.14,NNE,22,11.0,18.0,95,0.06,,,0.99,Rainwise IP-100,2013-02-28 01:36:00,
2013-02-27 20:41:00,36.0,35.0,29.15,NE,45,8.0,17.0,95,0.00,,,0.99,Rainwise IP-100,2013-02-28 01:41:00,
2013-02-27 20:46:00,36.0,35.0,29.15,NNE,22,6.0,17.0,95,0.00,,,0.99,Rainwise IP-100,2013-02-28 01:46:00,
2013-02-27 20:51:00,36.0,35.0,29.15,ENE,67,10.0,15.0,95,0.00,,,0.99,Rainwise IP-100,2013-02-28 01:51:00,
2013-02-27 20:56:00,36.0,35.0,29.15,NE,45,7.0,19.0,95,0.06,,,1.00,Rainwise IP-100,2013-02-28 01:56:00,
2013-02-27 21:01:00,36.0,35.0,29.15,North,360,7.0,15.0,95,0.06,,,1.00,Rainwise IP-100,2013-02-28 02:01:00,
2013-02-27 21:06:00,36.0,35.0,29.15,NNE,22,6.0,14.0,95,0.00,,,1.00,Rainwise IP-100,2013-02-28 02:06:00,
2013-02-27 21:11:00,37.0,36.0,29.14,NNW,337,3.0,12.0,96,0.06,,,1.01,Rainwise IP-100,2013-02-28 02:11:00,
2013-02-27 21:16:00,37.0,36.0,29.14,North,360,7.0,15.0,96,0.06,,,1.01,Rainwise IP-100,2013-02-28 02:16:00,
2013-02-27 21:21:00,37.0,36.0,29.14,NE,45,9.0,17.0,96,0.06,,,1.02,Rainwise IP-100,2013-02-28 02:21:00,
2013-02-27 21:26:00,37.0,36.0,29.14,North,360,6.0,13.0,96,0.06,,,1.02,Rainwise IP-100,2013-02-28 02:26:00,
2013-02-27 21:31:00,37.0,36.0,29.13,North,360,8.0,11.0,96,0.00,,,1.02,Rainwise IP-100,2013-02-28 02:31:00,
2013-02-27 21:36:00,37.0,36.0,29.13,NW,315,9.0,15.0,96,0.00,,,1.02,Rainwise IP-100,2013-02-28 02:36:00,
2013-02-27 21:41:00,37.0,36.0,29.13,NNE,22,12.0,14.0,96,0.00,,,1.03,Rainwise IP-100,2013-02-28 02:41:00,
2013-02-27 21:46:00,37.0,36.0,29.13,North,360,9.0,15.0,96,0.06,,,1.03,Rainwise IP-100,2013-02-28 02:46:00,
2013-02-27 21:51:00,36.0,35.0,29.12,North,360,9.0,12.0,95,0.06,,,1.03,Rainwise IP-100,2013-02-28 02:51:00,
2013-02-27 21:56:00,36.0,35.0,29.12,NNE,22,6.0,13.0,95,0.00,,,1.03,Rainwise IP-100,2013-02-28 02:56:00,
2013-02-27 22:01:00,36.0,35.0,29.11,North,360,7.0,12.0,95,0.00,,,1.04,Rainwise IP-100,2013-02-28 03:01:00,
2013-02-27 22:06:00,36.0,35.0,29.11,NE,45,10.0,13.0,95,0.06,,,1.04,Rainwise IP-100,2013-02-28 03:06:00,
2013-02-27 22:11:00,36.0,35.0,29.11,North,360,12.0,15.0,95,0.06,,,1.04,Rainwise IP-100,2013-02-28 03:11:00,
2013-02-27 22:16:00,36.0,35.0,29.11,ENE,67,6.0,15.0,95,0.00,,,1.04,Rainwise IP-100,2013-02-28 03:16:00,
2013-02-27 22:21:00,36.0,35.0,29.09,NNE,22,9.0,13.0,95,0.00,,,1.04,Rainwise IP-100,2013-02-28 03:21:00,
2013-02-27 22:26:00,36.0,35.0,29.09,North,360,8.0,17.0,95,0.00,,,1.04,Rainwise IP-100,2013-02-28 03:26:00,
2013-02-27 22:31:00,36.0,35.0,29.09,NW,315,6.0,17.0,95,0.00,,,1.04,Rainwise IP-100,2013-02-28 03:31:00,
2013-02-27 22:36:00,36.0,35.0,29.09,NNW,337,6.0,12.0,95,0.00,,,1.04,Rainwise IP-100,2013-02-28 03:36:00,
2013-02-27 22:41:00,36.0,35.0,29.09,NW,315,6.0,15.0,95,0.00,,,1.04,Rainwise IP-100,2013-02-28 03:41:00,
2013-02-27 22:46:00,35.0,33.0,29.09,NNE,22,8.0,15.0,95,0.00,,,1.04,Rainwise IP-100,2013-02-28 03:46:00,
2013-02-27 22:51:00,36.0,35.0,29.10,North,360,9.0,13.0,95,0.00,,,1.04,Rainwise IP-100,2013-02-28 03:51:00,
2013-02-27 22:56:00,35.0,33.0,29.10,NW,315,7.0,13.0,95,0.00,,,1.04,Rainwise IP-100,2013-02-28 03:56:00,
2013-02-27 23:01:00,35.0,33.0,29.09,NNW,337,6.0,13.0,95,0.00,,,1.04,Rainwise IP-100,2013-02-28 04:01:00,
2013-02-27 23:06:00,35.0,33.0,29.09,NW,315,10.0,11.0,95,0.00,,,1.04,Rainwise IP-100,2013-02-28 04:06:00,
2013-02-27 23:11:00,35.0,33.0,29.09,NNW,337,9.0,13.0,95,0.00,,,1.04,Rainwise IP-100,2013-02-28 04:11:00,
2013-02-27 23:16:00,35.0,33.0,29.09,NW,315,7.0,14.0,95,0.00,,,1.04,Rainwise IP-100,2013-02-28 04:16:00,
2013-02-27 23:21:00,35.0,33.0,29.09,NW,315,6.0,13.0,95,0.00,,,1.04,Rainwise IP-100,2013-02-28 04:21:00,
2013-02-27 23:26:00,35.0,33.0,29.09,NW,315,6.0,12.0,95,0.00,,,1.04,Rainwise IP-100,2013-02-28 04:26:00,
2013-02-27 23:31:00,35.0,33.0,29.09,NNW,337,6.0,8.0,95,0.00,,,1.04,Rainwise IP-100,2013-02-28 04:31:00,
2013-02-27 23:36:00,35.0,33.0,29.09,WNW,292,7.0,10.0,95,0.00,,,1.04,Rainwise IP-100,2013-02-28 04:36:00,
2013-02-27 23:41:00,35.0,33.0,29.09,West,270,5.0,8.0,95,0.00,,,1.04,Rainwise IP-100,2013-02-28 04:41:00,
2013-02-27 23:46:00,35.0,33.0,29.09,NW,315,5.0,6.0,95,0.00,,,1.04,Rainwise IP-100,2013-02-28 04:46:00,
2013-02-27 23:51:00,35.0,33.0,29.10,NW,315,4.0,10.0,95,0.00,,,1.04,Rainwise IP-100,2013-02-28 04:51:00,
2013-02-27 23:56:00,35.0,33.0,29.10,NW,315,7.0,10.0,95,0.00,,,1.04,Rainwise IP-100,2013-02-28 04:56:00,